SCP
0 0 0 0 0 0 0 0 0 0 0 0 0 0 0 0 0 0 0 0 0 0 0 0 0 0 0 0 0 0 0 0 0 0 0 0 0 0 0 0 0 0 0 0
0 0 0 0 0 0 0 0 0 0 0 0 0 0 0 0 0 0 0 0 0 0 0 0 0 0 0 0 0 0 0 0 0 0 0 0 0 0 0 0 0 0 0 0
0 0 0 0 0 0 0 0 0 0 0 0 0 0 0 0 0 0 0 0 0 0 0 0 0 0 0 0 0 0 0 0 0 0 0 0 0 0 0 0 0 0 0 0
0 0 0 0 0 0 0 0 0 0 0 0 0 0 0 0 0 0 0 0 0 0 0 0 1 1 1 1 0 0 0 0 0 0 0 0 0 0 0 0 0 0 0 0
0 0 0 0 0 0 0 0 0 0 0 0 0 0 0 0 0 0 0 0 0 0 0 0 1 1 1 1 1 0 0 0 0 0 0 0 0 0 0 0 0 0 0 0
0 0 0 0 0 0 0 0 0 0 0 0 0 0 0 0 0 0 0 0 0 0 0 0 1 1 1 1 0 0 0 0 0 0 0 0 0 0 0 0 0 0 0 0
0 0 0 0 0 0 0 0 0 0 0 0 0 0 0 0 0 0 0 0 0 0 0 0 0 1 1 0 0 0 0 0 0 0 0 0 0 0 0 0 0 0 0 0
0 0 0 0 0 0 0 0 0 0 0 0 0 0 0 0 0 0 0 0 0 0 0 0 0 0 1 0 0 0 0 0 0 0 0 0 0 0 0 0 0 0 0 0
0 0 0 0 0 0 0 0 0 0 0 0 0 0 0 0 0 0 0 0 0 0 0 0 0 0 0 0 0 0 0 0 0 0 0 0 0 0 0 0 0 0 0 0
0 0 0 0 0 0 0 0 0 0 0 0 0 0 0 0 0 0 0 0 0 0 0 0 0 0 0 0 0 0 0 0 0 0 0 0 0 0 0 0 0 0 0 0
0 0 0 0 0 0 0 0 0 0 0 0 0 0 0 0 0 0 0 0 0 0 0 0 0 0 0 0 0 0 0 0 0 0 0 0 0 0 0 0 0 0 0 0
0 0 0 0 0 0 0 0 0 0 0 0 0 0 0 0 0 0 0 0 0 0 0 0 0 0 0 0 0 0 0 0 0 0 0 0 0 0 0 0 0 0 0 0
0 0 0 0 0 0 0 0 0 0 0 0 0 0 0 0 0 0 0 0 0 0 0 0 0 0 0 0 0 0 0 0 0 0 0 0 0 0 0 0 0 0 0 0
0 0 0 0 0 0 0 0 0 0 0 0 0 0 0 0 0 0 0 0 0 0 0 0 0 0 0 0 0 0 0 0 0 0 0 0 0 0 0 0 0 0 0 0
0 0 0 0 0 0 0 0 0 0 0 0 0 0 0 0 0 0 0 0 0 0 0 0 0 0 0 0 0 0 0 0 0 0 0 0 0 0 0 0 0 0 0 0
0 0 0 0 0 0 0 0 0 0 0 0 0 0 0 0 0 0 0 0 0 0 0 0 0 0 0 0 0 0 0 0 0 0 0 0 0 0 0 0 0 0 0 0
0 0 0 0 0 0 0 0 0 0 0 0 0 0 0 0 0 0 0 0 0 0 0 0 0 0 0 0 0 0 0 0 0 0 0 0 0 0 0 0 0 0 0 0
0 0 0 0 0 0 0 0 0 0 0 0 0 0 0 0 0 0 0 0 0 0 -0 -0 0 0 0 0 0 0 0 0 0 0 0 0 0 0 0 0 0 0 0 0
0 0 0 0 0 0 0 0 0 0 0 0 0 0 0 0 0 0 0 0 0 0 -0 -0 0 0 0 0 0 0 0 0 0 0 0 0 0 0 0 0 0 0 0 0
0 0 0 0 0 0 0 0 0 0 0 0 0 0 0 0 0 0 0 0 0 0 0 0 0 0 0 0 0 0 0 0 0 0 0 0 0 0 0 0 0 0 0 0
0 0 0 0 0 0 0 0 0 0 0 0 0 0 0 0 0 0 0 0 0 0 0 0 0 0 0 0 0 0 0 0 0 0 0 0 0 0 0 0 0 0 0 0
0 0 0 0 0 0 0 0 0 0 0 0 0 0 0 0 0 0 0 0 0 0 0 0 0 0 0 0 0 0 0 0 0 0 0 0 0 0 0 0 0 0 0 0
0 0 0 0 0 0 0 0 0 0 0 0 0 0 0 0 0 0 0 0 0 0 0 0 0 0 0 0 0 0 0 0 0 0 0 0 0 0 0 0 0 0 0 0
0 0 0 0 0 0 0 0 0 0 0 0 0 0 0 0 0 0 0 0 0 0 0 0 0 0 0 0 0 0 0 0 0 0 0 0 0 0 0 0 0 0 0 0
0 0 0 0 0 0 0 0 0 0 0 0 0 0 0 0 0 0 0 0 0 0 0 0 0 0 0 0 0 0 0 0 0 0 0 0 0 0 0 0 0 0 0 0
0 0 0 0 0 0 0 0 0 0 0 0 0 0 0 0 0 0 0 0 0 0 0 0 0 0 0 0 0 0 0 0 0 0 0 0 0 0 0 0 0 0 0 0
Wind_Speed
4 5 0 4 5 4 2 2 2 4 2 2 1 1 3 1 3 3 3 4 4 4 2 2 3 3 3 2 2 2 2 1 1 1 1 1 1 0 0 0 0 1 1 1
5 2 5 3 2 3 3 2 1 3 1 2 1 1 2 2 3 4 5 6 5 4 3 3 3 3 3 2 2 1 1 1 1 1 1 1 1 1 1 0 0 1 1 1
3 5 2 1 1 2 1 4 3 3 1 3 2 3 2 1 1 2 2 3 3 5 5 3 3 3 3 2 2 2 1 1 1 1 1 2 2 1 1 1 1 1 0 0
3 4 2 1 1 3 3 3 4 3 2 2 1 2 5 2 3 3 3 3 4 4 4 4 4 3 3 3 2 2 1 2 2 2 2 3 2 1 1 0 0 1 1 1
4 2 1 1 3 3 2 2 3 2 2 1 2 1 7 1 3 5 5 4 3 3 5 5 4 4 3 2 2 2 2 2 2 2 2 2 1 0 1 1 1 1 1 1
4 2 2 2 1 2 3 5 5 5 4 1 2 2 6 4 5 5 4 4 3 3 4 3 3 3 2 2 2 2 2 2 2 2 2 2 2 1 1 1 1 1 1 1
7 6 3 1 2 3 4 5 5 5 4 4 2 2 7 6 4 5 5 3 3 3 4 4 4 3 2 2 2 2 2 2 2 2 2 2 1 1 1 0 0 1 1 1
3 6 5 3 1 2 0 5 5 4 4 5 3 4 7 4 2 1 2 2 2 3 3 3 4 4 3 2 2 2 2 2 1 1 1 1 1 1 0 0 1 1 1 2
1 5 5 4 2 3 2 1 3 5 1 2 5 5 7 2 2 1 1 2 2 3 3 3 3 3 3 2 2 2 2 1 1 1 1 1 1 0 0 1 1 1 2 2
2 4 5 4 3 4 2 5 4 4 2 3 5 4 5 5 4 3 2 3 3 3 3 3 3 3 3 2 2 2 2 1 1 1 1 1 0 1 1 1 1 2 2 1
1 1 6 4 2 2 2 2 4 3 3 3 3 7 5 5 4 4 5 4 4 4 4 4 3 3 3 2 2 2 2 1 1 0 0 1 1 1 1 1 2 2 2 2
1 2 3 6 5 2 2 2 5 3 2 3 3 9 4 3 3 3 3 3 3 3 3 3 2 3 2 2 2 1 1 1 0 0 0 1 1 1 2 2 2 2 2 2
1 3 3 8 7 4 2 0 2 3 3 3 3 8 4 3 2 1 1 2 3 2 2 2 3 3 2 2 1 1 1 1 0 0 0 0 1 1 2 2 2 2 2 2
2 2 4 6 7 5 4 4 2 3 3 4 7 8 7 5 3 2 2 2 3 3 3 3 3 2 2 2 2 2 1 1 1 1 1 0 1 2 2 2 2 2 1 2
3 1 3 6 7 5 6 6 4 4 6 6 7 7 9 6 5 4 3 3 3 3 3 3 3 3 3 2 2 2 2 1 1 1 1 1 1 1 1 2 2 2 2 2
2 1 2 5 5 4 5 7 5 5 5 5 5 8 6 3 2 2 3 4 4 4 4 4 4 4 4 3 3 2 2 1 1 1 1 1 1 1 1 2 2 2 2 2
1 1 1 4 5 4 5 5 4 3 3 4 5 6 2 1 2 4 4 4 5 5 4 4 4 4 4 4 3 3 2 1 1 1 1 1 1 1 2 1 1 1 1 2
4 2 1 2 3 4 7 3 2 2 3 2 3 3 2 3 3 2 3 5 5 4 4 4 4 4 3 3 2 2 2 2 1 0 1 1 1 1 1 1 1 2 1 1
5 5 2 1 2 6 6 3 1 2 4 2 2 3 3 2 3 2 1 3 4 4 4 3 3 4 3 3 3 3 2 1 1 1 1 1 1 1 1 1 2 1 1 2
3 3 2 1 2 4 5 6 4 1 4 3 2 2 1 2 1 4 2 1 2 2 2 2 3 3 3 3 4 3 2 1 1 2 2 1 1 1 1 2 2 1 1 2
3 2 1 2 4 6 5 5 3 2 6 5 2 1 1 2 4 3 0 2 2 2 2 3 3 3 2 3 4 3 2 2 3 2 1 1 1 1 1 1 1 1 1 2
2 1 1 1 3 6 4 3 0 5 4 2 2 2 2 2 1 0 1 2 3 3 2 3 3 2 1 3 4 3 2 3 1 1 0 1 1 1 1 1 2 1 1 2
3 4 4 5 7 6 4 5 5 3 3 3 3 2 2 1 1 1 2 2 2 2 2 2 3 2 1 2 4 3 3 1 1 1 0 1 2 1 1 1 2 2 1 1
4 1 2 5 8 8 8 6 5 3 3 4 3 3 3 3 2 2 2 2 2 2 2 2 2 2 1 1 2 2 2 2 2 1 1 1 1 2 2 1 1 1 2 2
5 2 3 7 9 8 6 5 5 5 3 2 2 2 3 3 2 3 3 3 3 2 2 2 3 3 3 2 1 1 2 2 2 1 0 1 1 1 2 2 2 2 3 4
5 6 5 8 8 6 9 7 5 4 3 1 1 1 1 2 3 3 3 3 3 2 2 2 2 2 2 2 2 1 2 2 2 1 0 1 1 1 1 2 4 4 4 6
Wind_Direction
32 59 309 238 206 197 171 158 249 270 270 100 139 258 274 190 164 180 190 190 185 194 188 147 142 137 124 118 109 101 90 74 102 122 147 145 151 126 98 227 225 171 179 177
32 320 248 232 177 153 147 138 265 301 358 111 117 289 289 186 201 201 202 206 200 190 172 160 155 150 145 141 135 120 118 115 140 158 143 137 133 148 175 221 330 236 210 206
199 249 257 163 92 126 188 184 207 213 6 51 83 336 310 282 246 225 212 216 205 195 196 179 174 185 166 152 161 162 184 160 128 107 103 86 68 56 46 29 359 334 303 186
248 264 264 277 259 166 258 227 178 163 104 297 101 275 278 265 286 258 249 231 224 208 193 185 183 188 181 178 153 131 119 91 89 109 134 141 145 174 228 227 263 342 18 44
283 274 271 264 259 187 219 86 118 131 135 29 10 176 279 291 264 258 249 237 222 202 184 184 184 181 175 153 133 125 104 78 84 107 122 121 98 54 23 43 38 2 1 8
274 288 233 235 329 114 116 70 56 55 68 352 260 189 271 247 233 245 242 231 213 187 172 166 154 148 145 123 115 107 101 81 75 87 96 109 115 102 76 43 28 358 339 333
336 334 332 23 28 20 65 75 25 360 6 256 268 214 251 256 244 227 232 225 199 177 159 153 149 151 138 117 103 96 104 87 85 93 94 101 126 128 133 169 61 334 314 305
355 314 317 347 189 204 133 132 156 210 230 275 315 242 254 261 282 263 207 180 169 168 158 155 156 154 149 130 116 107 105 107 120 129 112 82 84 113 183 218 221 254 268 275
222 280 307 329 336 131 130 140 163 141 190 283 281 282 296 277 321 344 123 158 197 183 167 161 151 156 153 146 157 143 125 107 96 104 104 92 85 64 319 311 279 263 264 273
180 277 301 317 22 24 107 143 94 108 159 271 288 274 255 260 260 265 250 222 217 189 171 168 167 170 161 156 152 117 129 152 169 130 128 112 62 332 307 316 315 300 298 302
68 207 308 346 1 304 21 64 94 106 155 175 263 270 235 239 240 232 240 234 215 193 186 184 178 169 150 131 129 134 152 145 127 83 74 58 17 348 339 323 313 315 316 316
45 119 284 283 282 271 208 177 144 144 242 194 211 267 286 274 252 219 228 226 208 195 179 169 160 148 144 147 154 158 141 126 184 190 86 26 1 349 343 324 316 322 321 320
47 87 354 337 340 354 18 47 134 128 135 181 202 266 317 343 344 317 215 209 188 176 165 153 148 158 172 176 172 163 164 196 210 125 91 11 337 337 323 313 319 327 330 332
83 129 180 227 251 272 286 280 241 152 177 225 232 257 290 296 283 282 260 198 169 169 167 159 164 182 188 187 189 184 204 205 183 159 186 263 294 301 299 306 318 320 323 322
79 229 244 257 267 269 271 277 265 225 211 216 249 249 265 255 235 222 209 175 159 166 169 176 184 188 185 192 201 193 200 213 192 197 245 260 274 300 314 315 321 328 329 316
42 240 294 293 286 284 283 281 264 251 236 234 255 266 269 256 207 200 194 182 187 191 189 193 192 188 191 197 196 190 198 206 178 210 249 262 278 318 317 312 327 342 337 331
277 185 318 283 299 333 290 267 248 235 228 208 235 256 284 293 235 214 206 200 202 202 198 196 196 192 197 197 185 185 192 168 151 226 258 278 303 317 310 313 339 331 326 335
179 155 169 285 344 257 251 280 271 257 282 285 284 291 256 238 247 234 201 202 215 204 201 204 194 190 192 182 170 168 154 146 151 202 270 296 306 309 322 339 331 322 326 328
174 158 153 163 268 281 301 322 302 248 284 344 338 344 353 38 29 332 244 202 210 205 194 195 188 178 173 170 164 149 141 129 142 226 258 264 247 274 315 321 310 316 336 326
71 111 131 168 246 261 275 306 311 78 299 339 7 355 0 54 8 281 267 198 201 193 167 158 148 140 156 166 152 146 148 151 207 240 252 258 248 252 278 281 290 310 310 305
356 11 161 216 243 265 281 318 20 49 282 312 320 285 207 218 235 268 209 138 150 146 140 136 137 148 173 158 146 150 165 206 227 236 247 275 284 276 269 298 303 302 316 329
248 261 246 197 238 262 330 14 52 253 285 293 272 248 229 273 293 215 147 133 132 118 111 127 138 149 153 147 147 159 202 224 208 163 220 301 314 310 319 315 311 316 334 334
222 200 207 212 234 261 297 276 276 260 283 279 248 264 216 243 277 203 179 165 152 143 137 128 142 139 127 156 158 177 220 194 139 118 274 306 322 327 324 299 300 315 323 309
280 232 224 271 275 286 289 289 293 276 272 270 251 234 208 210 226 200 178 177 173 163 157 134 133 147 178 191 172 189 202 157 139 156 293 316 331 328 337 325 290 288 291 290
250 265 266 271 284 304 299 299 304 312 313 302 293 245 206 180 193 197 190 195 195 180 170 152 160 183 202 193 192 193 170 155 164 184 272 322 332 320 328 324 295 274 264 242
221 214 227 255 261 260 277 289 299 303 305 285 248 260 240 196 192 197 197 200 193 186 174 162 177 195 198 187 210 215 176 165 161 170 254 275 298 312 317 321 321 301 268 277